Preview of NWS' New Version of Forecast
This preview is not operational and should not be used for support decisions.

Regional Weather Roundup (RWR)

Issued by Gray - Portland, ME (GYX)

                            
000
ASUS41 KGYX 240010
RWRGYX
WEATHER ROUNDUP FOR MAINE AND NEW HAMPSHIRE
NATIONAL WEATHER SERVICE GRAY ME
700 PM EST WED JAN 23 2019

MEZ002-005-006-010-012-015-018-020-021-024-026-027-029-240100-
MAINE
  
CITY           SKY/WX    TMP DP  RH WIND       PRES   REMARKS
PORTLAND       CLOUDY    34  28  79 CALM      29.99F                  
6HR MIN TEMP:  34; 6HR MAX TEMP:  36; 6HR PCP:  0.01;                

SANFORD        CLOUDY    38  29  70 SW7       29.98F                  
BAR HARBOR     CLOUDY    37  30  75 SW9       30.02F                  
WISCASSET      CLOUDY    32  29  88 CALM      30.00F                  
6HR MIN TEMP:  32; 6HR MAX TEMP:  36; 6HR PCP: TRACE;                

ROCKLAND       CLOUDY    37  31  78 SW5       30.00F                  
FRYEBURG       CLOUDY    29  21  72 S5        29.97F                  
6HR MIN TEMP:  28; 6HR MAX TEMP:  31; 6HR PCP: TRACE;                

LEWISTONAUBURN CLOUDY    31  19  61 CALM      29.98F                  
AUGUSTA        CLOUDY    31  18  58 S3        29.98F                  
6HR MIN TEMP:  30; 6HR MAX TEMP:  31;                                

WATERVILLE     CLOUDY    28  18  66 MISG      29.96F                  
BANGOR         CLOUDY    22  19  89 E3        30.00F                  
6HR MIN TEMP:  21; 6HR MAX TEMP:  36; 6HR PCP:  0.02;                

GREENVILLE       N/A     18  12  77 SE7       29.87F                  
6HR MIN TEMP:  14; 6HR MAX TEMP:  18; 6HR PCP:  0.03;                

MILLINOCKET    LGT SNOW  17  13  84 CALM      29.98F FOG              
6HR MIN TEMP:  11; 6HR MAX TEMP:  17; 6HR PCP: TRACE;                

HOULTON        LGT SNOW  19  17  92 CALM      29.97F VSB 3/4          
6HR MIN TEMP:  15; 6HR MAX TEMP:  20; 6HR PCP:  0.09;                

PRESQUE ISLE   FLURRIES  15  11  83 SE5       29.97F                  
6HR MIN TEMP:  11; 6HR MAX TEMP:  15; 6HR PCP:  0.05;                

FRENCHVILLE    LGT SNOW  13   8  81 E7        29.92F                  
6HR MIN TEMP:  10; 6HR MAX TEMP:  14; 6HR PCP:  0.01;                

CARIBOU        LGT SNOW  15  10  80 SE3       29.95F                  
6HR MIN TEMP:  10; 6HR MAX TEMP:  15; 6HR PCP:  0.10;                

$$

NHZ002-005-008-009-011-012-014-240100-
NEW HAMPSHIRE
  
CITY           SKY/WX    TMP DP  RH WIND       PRES   REMARKS
PORTSMOUTH     CLOUDY    40  27  59 S13       29.98F                  
ROCHESTER      CLOUDY    38  30  73 VRB3      29.98F                  
6HR MIN TEMP:  32; 6HR MAX TEMP:  38; 6HR PCP: TRACE;                

NASHUA         CLOUDY    39  28  64 VRB3      30.01F                  
MANCHESTER     CLOUDY    40  28  62 S9        29.98F                  
6HR MIN TEMP:  37; 6HR MAX TEMP:  42; 6HR PCP: TRACE;                

CONCORD        CLOUDY    38  31  76 S8        29.98F                  
6HR MIN TEMP:  31; 6HR MAX TEMP:  38; 6HR PCP: TRACE;                

LACONIA        MIX PCPN  27  20  75 CALM      29.97F                  
PLYMOUTH       MIX PCPN  27  21  77 CALM      29.98F                  
BERLIN         MIX PCPN  22  18  85 NW3       29.89F                  
6HR MIN TEMP:  18; 6HR MAX TEMP:  22; 6HR PCP:  0.03;                

WHITEFIELD     FRZ RAIN  23  21  92 CALM      29.89F                  
6HR MIN TEMP:  20; 6HR MAX TEMP:  23; 6HR PCP:  0.02;                

JAFFREY        CLOUDY    36  28  73 S13G21    29.98R                  
6HR MIN TEMP:  34; 6HR MAX TEMP:  36; 6HR PCP: TRACE;                

KEENE          MIX PCPN  36  29  75 S10       29.99S                  
LEBANON        CLOUDY    32  25  75 NE3       29.93F                  
6HR MIN TEMP:  30; 6HR MAX TEMP:  33; 6HR PCP: TRACE;                

MT WASHINGTON  FOG       28  28 100 W59G64      N/A  VSB 0   WCI   8  
6HR MIN TEMP:  22; 6HR MAX TEMP:  28; 6HR PCP:  0.02;                

$$

VTZ005-007-008-240100-
VERMONT
  
CITY           SKY/WX    TMP DP  RH WIND       PRES   REMARKS
ST JOHNSBURY     N/A     26  23  88 MISG      29.88F                  
MONTPELIER     CLOUDY    29  27  92 S7        29.90F                  
BURLINGTON     MOCLDY    34  27  75 S17G33    29.82F                  
$$

MAZ007-012-024-CTZ003-RIZ002-NYZ038-NYZ072-240100-
SOUTHERN NEW ENGLAND AND NY
  
CITY           SKY/WX    TMP DP  RH WIND       PRES   REMARKS
BOSTON         CLOUDY    43  32  65 SW16      30.05F                  
WORCESTER      CLOUDY    35  27  72 SW16G23   30.00F                  
NANTUCKET      CLOUDY    42  40  92 S15       30.14F                  
PROVIDENCE     CLOUDY    41  37  86 S13       30.09F                  
HARTFORD       CLOUDY    36  27  69 S7        30.05F                  
ALBANY         LGT RAIN  37  29  72 S14G28    29.94F                  
NEW YORK CITY  MOCLDY    42  35  76 S7        30.05F                  
$$

ANZ081-ANZ082-ANZ150-NHZ014-MEZ023>029-240100-
COASTAL MARINE OBSERVATIONS
  
STATION/POSITION TIME  TEMP    WIND        PRES    WAVE
                       AIR SEA DIR/SP/G            HT/PER
                 (UTC) (F)     (DEG/KT/KT) (MB)    (FT/S)
MOUNT DESERT ROC 0000   41     200/ 24/ 26 1016.9F
MATINICUS ROCK   0000   41     220/ 25/ 26 1015.9F
ISLE OF SHOALS   0000   40     210/ 24/ 27 1015.6F
JEFFREYS LEDGE   2338      42                N/A     7/ 6
CASHES LEDGE BUO 2350   43 40              1017.1F   8/ 7
$$

.............KEY..............
   WCI - WIND CHILL
   TC  - TEMPERATURE IN CELSIUS
   VSB - VISIBILITY IN MILES
   HX  - HEAT INDEX
   FAIR- INDICATES FEW OR NO CLOUDS BELOW 12,000 FT, WITH NO 
         SIGNIFICANT WEATHER AND/OR OBSTRUCTIONS TO VISIBILITY.